Year,Month,Day,Hour,Minute,Value (Times are PST for temperature in C)
2013,07,14,00,00,14.40
2013,07,14,00,01,14.40
2013,07,14,00,02,14.40
2013,07,14,00,03,14.40
2013,07,14,00,04,14.40
2013,07,14,00,05,14.40
2013,07,14,00,06,14.50
2013,07,14,00,07,14.50
2013,07,14,00,08,14.50
2013,07,14,00,09,14.50
2013,07,14,00,10,14.50
2013,07,14,00,11,14.40
2013,07,14,00,12,14.40
2013,07,14,00,13,14.40
2013,07,14,00,14,14.40
2013,07,14,00,15,14.40
2013,07,14,00,16,14.40
2013,07,14,00,17,14.40
2013,07,14,00,18,14.40
2013,07,14,00,19,14.40
2013,07,14,00,20,14.40
2013,07,14,00,21,14.40
2013,07,14,00,22,14.40
2013,07,14,00,23,14.40
2013,07,14,00,24,14.40
2013,07,14,00,25,14.40
2013,07,14,00,26,14.40
2013,07,14,00,27,14.40
2013,07,14,00,28,14.40
2013,07,14,00,29,14.40
2013,07,14,00,30,14.40
2013,07,14,00,31,14.40
2013,07,14,00,32,14.40
2013,07,14,00,33,14.40
2013,07,14,00,34,14.40
2013,07,14,00,35,14.40
2013,07,14,00,36,14.40
2013,07,14,00,37,14.40
2013,07,14,00,38,14.30
2013,07,14,00,39,14.30
2013,07,14,00,40,14.30
2013,07,14,00,41,14.30
2013,07,14,00,42,14.30
2013,07,14,00,43,14.30
2013,07,14,00,44,14.30
2013,07,14,00,45,14.30
2013,07,14,00,46,14.30
2013,07,14,00,47,14.30
2013,07,14,00,48,14.30
2013,07,14,00,49,14.30
2013,07,14,00,50,14.20
2013,07,14,00,51,14.20
2013,07,14,00,52,14.20
2013,07,14,00,53,14.20
2013,07,14,00,54,14.20
2013,07,14,00,55,14.10
2013,07,14,00,56,14.10
2013,07,14,00,57,14.10
2013,07,14,00,58,14.10
2013,07,14,00,59,14.00
2013,07,14,01,00,14.00
2013,07,14,01,01,14.00
2013,07,14,01,02,13.90
2013,07,14,01,03,13.90
2013,07,14,01,04,13.90
2013,07,14,01,05,13.90
2013,07,14,01,06,13.80
2013,07,14,01,07,13.80
2013,07,14,01,08,13.80
2013,07,14,01,09,13.80
2013,07,14,01,10,13.80
2013,07,14,01,11,13.80
2013,07,14,01,12,13.70
2013,07,14,01,13,13.70
2013,07,14,01,14,13.70
2013,07,14,01,15,13.70
2013,07,14,01,16,13.60
2013,07,14,01,17,13.60
2013,07,14,01,18,13.60
2013,07,14,01,19,13.60
2013,07,14,01,20,13.60
2013,07,14,01,21,13.60
2013,07,14,01,22,13.50
2013,07,14,01,23,13.50
2013,07,14,01,24,13.50
2013,07,14,01,25,13.50
2013,07,14,01,26,13.40
2013,07,14,01,27,13.40
2013,07,14,01,28,13.40
2013,07,14,01,29,13.40
2013,07,14,01,30,13.40
2013,07,14,01,31,13.40
2013,07,14,01,32,13.40
2013,07,14,01,33,13.30
2013,07,14,01,34,13.30
2013,07,14,01,35,13.30
2013,07,14,01,36,13.30
2013,07,14,01,37,13.30
2013,07,14,01,38,13.30
2013,07,14,01,39,13.20
2013,07,14,01,40,13.20
2013,07,14,01,41,13.20
2013,07,14,01,42,13.20
2013,07,14,01,43,13.20
2013,07,14,01,44,13.10
2013,07,14,01,45,13.10
2013,07,14,01,46,13.10
2013,07,14,01,47,13.10
2013,07,14,01,48,13.10
2013,07,14,01,49,13.00
2013,07,14,01,50,13.00
2013,07,14,01,51,13.00
2013,07,14,01,52,13.00
2013,07,14,01,53,12.90
2013,07,14,01,54,12.90
2013,07,14,01,55,12.90
2013,07,14,01,56,12.90
2013,07,14,01,57,12.90
2013,07,14,01,58,12.80
2013,07,14,01,59,12.80
2013,07,14,02,00,12.80
2013,07,14,02,01,12.80
2013,07,14,02,02,12.80
2013,07,14,02,03,12.80
2013,07,14,02,04,12.80
2013,07,14,02,05,12.70
2013,07,14,02,06,12.70
2013,07,14,02,07,12.70
2013,07,14,02,08,12.70
2013,07,14,02,09,12.70
2013,07,14,02,10,12.70
2013,07,14,02,11,12.70
2013,07,14,02,12,12.70
2013,07,14,02,13,12.70
2013,07,14,02,14,12.70
2013,07,14,02,15,12.70
2013,07,14,02,16,12.70
2013,07,14,02,17,12.70
2013,07,14,02,18,12.70
2013,07,14,02,19,12.70
2013,07,14,02,20,12.70
2013,07,14,02,21,12.70
2013,07,14,02,22,12.70
2013,07,14,02,23,12.70
2013,07,14,02,24,12.70
2013,07,14,02,25,12.60
2013,07,14,02,26,12.60
2013,07,14,02,27,12.60
2013,07,14,02,28,12.60
2013,07,14,02,29,12.60
2013,07,14,02,30,12.60
2013,07,14,02,31,12.60
2013,07,14,02,32,12.60
2013,07,14,02,33,12.60
2013,07,14,02,34,12.50
2013,07,14,02,35,12.50
2013,07,14,02,36,12.50
2013,07,14,02,37,12.50
2013,07,14,02,38,12.50
2013,07,14,02,39,12.50
2013,07,14,02,40,12.50
2013,07,14,02,41,12.50
2013,07,14,02,42,12.40
2013,07,14,02,43,12.40
2013,07,14,02,44,12.40
2013,07,14,02,45,12.40
2013,07,14,02,46,12.40
2013,07,14,02,47,12.40
2013,07,14,02,48,12.40
2013,07,14,02,49,12.40
2013,07,14,02,50,12.40
2013,07,14,02,51,12.40
2013,07,14,02,52,12.40
2013,07,14,02,53,12.40
2013,07,14,02,54,12.40
2013,07,14,02,55,12.40
2013,07,14,02,56,12.40
2013,07,14,02,57,12.40
2013,07,14,02,58,12.40
2013,07,14,02,59,12.40
2013,07,14,03,00,12.40
2013,07,14,03,01,12.40
2013,07,14,03,02,12.40
2013,07,14,03,03,12.40
2013,07,14,03,04,12.40
2013,07,14,03,05,12.40
2013,07,14,03,06,12.40
2013,07,14,03,07,12.30
2013,07,14,03,08,12.40
2013,07,14,03,09,12.30
2013,07,14,03,10,12.30
2013,07,14,03,11,12.30
2013,07,14,03,12,12.30
2013,07,14,03,13,12.30
2013,07,14,03,14,12.30
2013,07,14,03,15,12.30
2013,07,14,03,16,12.30
2013,07,14,03,17,12.30
2013,07,14,03,18,12.30
2013,07,14,03,19,12.30
2013,07,14,03,20,12.30
2013,07,14,03,21,12.30
2013,07,14,03,22,12.30
2013,07,14,03,23,12.30
2013,07,14,03,24,12.30
2013,07,14,03,25,12.20
2013,07,14,03,26,12.20
2013,07,14,03,27,12.20
2013,07,14,03,28,12.20
2013,07,14,03,29,12.20
2013,07,14,03,30,12.20
2013,07,14,03,31,12.20
2013,07,14,03,32,12.20
2013,07,14,03,33,12.20
2013,07,14,03,34,12.20
2013,07,14,03,35,12.10
2013,07,14,03,36,12.10
2013,07,14,03,37,12.10
2013,07,14,03,38,12.10
2013,07,14,03,39,12.10
2013,07,14,03,40,12.10
2013,07,14,03,41,12.00
2013,07,14,03,42,12.00
2013,07,14,03,43,12.00
2013,07,14,03,44,11.90
2013,07,14,03,45,11.90
2013,07,14,03,46,11.90
2013,07,14,03,47,11.90
2013,07,14,03,48,11.80
2013,07,14,03,49,11.80
2013,07,14,03,50,11.80
2013,07,14,03,51,11.80
2013,07,14,03,52,11.80
2013,07,14,03,53,11.70
2013,07,14,03,54,11.70
2013,07,14,03,55,11.70
2013,07,14,03,56,11.70
2013,07,14,03,57,11.70
2013,07,14,03,58,11.70
2013,07,14,03,59,11.60
2013,07,14,04,00,11.60
2013,07,14,04,01,11.60
2013,07,14,04,02,11.60
2013,07,14,04,03,11.60
2013,07,14,04,04,11.50
2013,07,14,04,05,11.50
2013,07,14,04,06,11.50
2013,07,14,04,07,11.50
2013,07,14,04,08,11.50
2013,07,14,04,09,11.50
2013,07,14,04,10,11.50
2013,07,14,04,11,11.50
2013,07,14,04,12,11.50
2013,07,14,04,13,11.40
2013,07,14,04,14,11.40
2013,07,14,04,15,11.40
2013,07,14,04,16,11.40
2013,07,14,04,17,11.40
2013,07,14,04,18,11.40
2013,07,14,04,19,11.40
2013,07,14,04,20,11.40
2013,07,14,04,21,11.40
2013,07,14,04,22,11.40
2013,07,14,04,23,11.40
2013,07,14,04,24,11.40
2013,07,14,04,25,11.40
2013,07,14,04,26,11.40
2013,07,14,04,27,11.40
2013,07,14,04,28,11.40
2013,07,14,04,29,11.40
2013,07,14,04,30,11.40
2013,07,14,04,31,11.40
2013,07,14,04,32,11.40
2013,07,14,04,33,11.40
2013,07,14,04,34,11.40
2013,07,14,04,35,11.40
2013,07,14,04,36,11.40
2013,07,14,04,37,11.40
2013,07,14,04,38,11.40
2013,07,14,04,39,11.40
2013,07,14,04,40,11.40
2013,07,14,04,41,11.40
2013,07,14,04,42,11.40
2013,07,14,04,43,11.40
2013,07,14,04,44,11.40
2013,07,14,04,45,11.40
2013,07,14,04,46,11.40
2013,07,14,04,47,11.40
2013,07,14,04,48,11.40
2013,07,14,04,49,11.40
2013,07,14,04,50,11.40
2013,07,14,04,51,11.40
2013,07,14,04,52,11.40
2013,07,14,04,53,11.40
2013,07,14,04,54,11.40
2013,07,14,04,55,11.40
2013,07,14,04,56,11.40
2013,07,14,04,57,11.40
2013,07,14,04,58,11.40
2013,07,14,04,59,11.40
2013,07,14,05,00,11.30
2013,07,14,05,01,11.30
2013,07,14,05,02,11.30
2013,07,14,05,03,11.30
2013,07,14,05,04,11.30
2013,07,14,05,05,11.30
2013,07,14,05,06,11.30
2013,07,14,05,07,11.30
2013,07,14,05,08,11.30
2013,07,14,05,09,11.30
2013,07,14,05,10,11.30
2013,07,14,05,11,11.30
2013,07,14,05,12,11.30
2013,07,14,05,13,11.30
2013,07,14,05,14,11.30
2013,07,14,05,15,11.30
2013,07,14,05,16,11.30
2013,07,14,05,17,11.30
2013,07,14,05,18,11.30
2013,07,14,05,19,11.30
2013,07,14,05,20,11.30
2013,07,14,05,21,11.30
2013,07,14,05,22,11.30
2013,07,14,05,23,11.30
2013,07,14,05,24,11.30
2013,07,14,05,25,11.30
2013,07,14,05,26,11.30
2013,07,14,05,27,11.30
2013,07,14,05,28,11.30
2013,07,14,05,29,11.30
2013,07,14,05,30,11.30
2013,07,14,05,31,11.20
2013,07,14,05,32,11.20
2013,07,14,05,33,11.20
2013,07,14,05,34,11.20
2013,07,14,05,35,11.20
2013,07,14,05,36,11.20
2013,07,14,05,37,11.20
2013,07,14,05,38,11.20
2013,07,14,05,39,11.20
2013,07,14,05,40,11.20
2013,07,14,05,41,11.20
2013,07,14,05,42,11.20
2013,07,14,05,43,11.20
2013,07,14,05,44,11.10
2013,07,14,05,45,11.10
2013,07,14,05,46,11.10
2013,07,14,05,47,11.10
2013,07,14,05,48,11.10
2013,07,14,05,49,11.10
2013,07,14,05,50,11.00
2013,07,14,05,51,11.00
2013,07,14,05,52,11.00
2013,07,14,05,53,11.00
2013,07,14,05,54,11.00
2013,07,14,05,55,10.90
2013,07,14,05,56,10.90
2013,07,14,05,57,10.90
2013,07,14,05,58,10.90
2013,07,14,05,59,10.90
2013,07,14,06,00,10.90
2013,07,14,06,01,10.80
2013,07,14,06,02,10.80
2013,07,14,06,03,10.80
2013,07,14,06,04,10.80
2013,07,14,06,05,10.80
2013,07,14,06,06,10.80
2013,07,14,06,07,10.80
2013,07,14,06,08,10.70
2013,07,14,06,09,10.70
2013,07,14,06,10,10.70
2013,07,14,06,11,10.70
2013,07,14,06,12,10.70
2013,07,14,06,13,10.70
2013,07,14,06,14,10.70
2013,07,14,06,15,10.70
2013,07,14,06,16,10.80
2013,07,14,06,17,10.80
2013,07,14,06,18,10.80
2013,07,14,06,19,10.80
2013,07,14,06,20,10.90
2013,07,14,06,21,10.90
2013,07,14,06,22,10.90
2013,07,14,06,23,10.90
2013,07,14,06,24,10.90
2013,07,14,06,25,11.00
2013,07,14,06,26,11.00
2013,07,14,06,27,11.10
2013,07,14,06,28,11.10
2013,07,14,06,29,11.20
2013,07,14,06,30,11.20
2013,07,14,06,31,11.30
2013,07,14,06,32,11.30
2013,07,14,06,33,11.40
2013,07,14,06,34,11.40
2013,07,14,06,35,11.50
2013,07,14,06,36,11.50
2013,07,14,06,37,11.60
2013,07,14,06,38,11.60
2013,07,14,06,39,11.70
2013,07,14,06,40,11.80
2013,07,14,06,41,11.80
2013,07,14,06,42,11.80
2013,07,14,06,43,11.90
2013,07,14,06,44,11.90
2013,07,14,06,45,11.90
2013,07,14,06,46,12.00
2013,07,14,06,47,12.00
2013,07,14,06,48,12.10
2013,07,14,06,49,12.10
2013,07,14,06,50,12.10
2013,07,14,06,51,12.20
2013,07,14,06,52,12.20
2013,07,14,06,53,12.20
2013,07,14,06,54,12.30
2013,07,14,06,55,12.30
2013,07,14,06,56,12.30
2013,07,14,06,57,12.40
2013,07,14,06,58,12.40
2013,07,14,06,59,12.50
2013,07,14,07,00,12.60
2013,07,14,07,01,12.60
2013,07,14,07,02,12.70
2013,07,14,07,03,12.80
2013,07,14,07,04,12.80
2013,07,14,07,05,12.90
2013,07,14,07,06,13.00
2013,07,14,07,07,13.00
2013,07,14,07,08,13.10
2013,07,14,07,09,13.20
2013,07,14,07,10,13.30
2013,07,14,07,11,13.40
2013,07,14,07,12,13.50
2013,07,14,07,13,13.50
2013,07,14,07,14,13.60
2013,07,14,07,15,13.70
2013,07,14,07,16,13.80
2013,07,14,07,17,13.80
2013,07,14,07,18,13.90
2013,07,14,07,19,13.90
2013,07,14,07,20,13.90
2013,07,14,07,21,14.00
2013,07,14,07,22,14.10
2013,07,14,07,23,14.10
2013,07,14,07,24,14.20
2013,07,14,07,25,14.20
2013,07,14,07,26,14.30
2013,07,14,07,27,14.30
2013,07,14,07,28,14.40
2013,07,14,07,29,14.40
2013,07,14,07,30,14.50
2013,07,14,07,31,14.60
2013,07,14,07,32,14.60
2013,07,14,07,33,14.80
2013,07,14,07,34,14.80
2013,07,14,07,35,14.90
2013,07,14,07,36,15.00
2013,07,14,07,37,15.10
2013,07,14,07,38,15.10
2013,07,14,07,39,15.20
2013,07,14,07,40,15.20
2013,07,14,07,41,15.30
2013,07,14,07,42,15.30
2013,07,14,07,43,15.40
2013,07,14,07,44,15.50
2013,07,14,07,45,15.60
2013,07,14,07,46,15.70
2013,07,14,07,47,15.80
2013,07,14,07,48,15.80
2013,07,14,07,49,15.90
2013,07,14,07,50,16.00
2013,07,14,07,51,16.00
2013,07,14,07,52,16.10
2013,07,14,07,53,16.10
2013,07,14,07,54,16.10
2013,07,14,07,55,16.10
2013,07,14,07,56,16.00
2013,07,14,07,57,16.00
2013,07,14,07,58,15.90
2013,07,14,07,59,15.90
2013,07,14,08,00,15.90
2013,07,14,08,01,15.80
2013,07,14,08,02,15.80
2013,07,14,08,03,15.80
2013,07,14,08,04,15.80
2013,07,14,08,05,15.80
2013,07,14,08,06,15.80
2013,07,14,08,07,15.80
2013,07,14,08,08,15.70
2013,07,14,08,09,15.70
2013,07,14,08,10,15.70
2013,07,14,08,11,15.70
2013,07,14,08,12,15.70
2013,07,14,08,13,15.70
2013,07,14,08,14,15.70
2013,07,14,08,15,15.70
2013,07,14,08,16,15.70
2013,07,14,08,17,15.60
2013,07,14,08,18,15.60
2013,07,14,08,19,15.60
2013,07,14,08,20,15.60
2013,07,14,08,21,15.60
2013,07,14,08,22,15.60
2013,07,14,08,23,15.60
2013,07,14,08,24,15.60
2013,07,14,08,25,15.70
2013,07,14,08,26,15.70
2013,07,14,08,27,15.70
2013,07,14,08,28,15.80
2013,07,14,08,29,15.80
2013,07,14,08,30,15.80
2013,07,14,08,31,15.90
2013,07,14,08,32,16.00
2013,07,14,08,33,16.00
2013,07,14,08,34,16.10
2013,07,14,08,35,16.20
2013,07,14,08,36,16.20
2013,07,14,08,37,16.20
2013,07,14,08,38,16.20
2013,07,14,08,39,16.30
2013,07,14,08,40,16.30
2013,07,14,08,41,16.30
2013,07,14,08,42,16.30
2013,07,14,08,43,16.20
2013,07,14,08,44,16.20
2013,07,14,08,45,16.20
2013,07,14,08,46,16.20
2013,07,14,08,47,16.20
2013,07,14,08,48,16.20
2013,07,14,08,49,16.20
2013,07,14,08,50,16.20
2013,07,14,08,51,16.20
2013,07,14,08,52,16.20
2013,07,14,08,53,16.30
2013,07,14,08,54,16.30
2013,07,14,08,55,16.30
2013,07,14,08,56,16.30
2013,07,14,08,57,16.30
2013,07,14,08,58,16.20
2013,07,14,08,59,16.20
2013,07,14,09,00,16.20
2013,07,14,09,01,16.20
2013,07,14,09,02,16.20
2013,07,14,09,03,16.20
2013,07,14,09,04,16.20
2013,07,14,09,05,16.20
2013,07,14,09,06,16.20
2013,07,14,09,07,16.20
2013,07,14,09,08,16.20
2013,07,14,09,09,16.30
2013,07,14,09,10,16.30
2013,07,14,09,11,16.30
2013,07,14,09,12,16.30
2013,07,14,09,13,16.30
2013,07,14,09,14,16.40
2013,07,14,09,15,16.40
2013,07,14,09,16,16.40
2013,07,14,09,17,16.40
2013,07,14,09,18,16.30
2013,07,14,09,19,16.30
2013,07,14,09,20,16.30
2013,07,14,09,21,16.30
2013,07,14,09,22,16.30
2013,07,14,09,23,16.20
2013,07,14,09,24,16.20
2013,07,14,09,25,16.20
2013,07,14,09,26,16.30
2013,07,14,09,27,16.30
2013,07,14,09,28,16.30
2013,07,14,09,29,16.30
2013,07,14,09,30,16.30
2013,07,14,09,31,16.30
2013,07,14,09,32,16.40
2013,07,14,09,33,16.40
2013,07,14,09,34,16.40
2013,07,14,09,35,16.40
2013,07,14,09,36,16.40
2013,07,14,09,37,16.40
2013,07,14,09,38,16.40
2013,07,14,09,39,16.40
2013,07,14,09,40,16.40
2013,07,14,09,41,16.40
2013,07,14,09,42,16.40
2013,07,14,09,43,16.40
2013,07,14,09,44,16.40
2013,07,14,09,45,16.40
2013,07,14,09,46,16.40
2013,07,14,09,47,16.40
2013,07,14,09,48,16.40
2013,07,14,09,49,16.40
2013,07,14,09,50,16.40
2013,07,14,09,51,16.40
2013,07,14,09,52,16.40
2013,07,14,09,53,16.40
2013,07,14,09,54,16.40
2013,07,14,09,55,16.40
2013,07,14,09,56,16.40
2013,07,14,09,57,16.30
2013,07,14,09,58,16.40
2013,07,14,09,59,16.40
2013,07,14,10,00,16.40
2013,07,14,10,01,16.40
2013,07,14,10,02,16.30
2013,07,14,10,03,16.30
2013,07,14,10,04,16.30
2013,07,14,10,05,16.30
2013,07,14,10,06,16.30
2013,07,14,10,07,16.30
2013,07,14,10,08,16.40
2013,07,14,10,09,16.40
2013,07,14,10,10,16.40
2013,07,14,10,11,16.40
2013,07,14,10,12,16.50
2013,07,14,10,13,16.50
2013,07,14,10,14,16.60
2013,07,14,10,15,16.60
2013,07,14,10,16,16.70
2013,07,14,10,17,16.70
2013,07,14,10,18,16.70
2013,07,14,10,19,16.80
2013,07,14,10,20,16.80
2013,07,14,10,21,16.80
2013,07,14,10,22,16.90
2013,07,14,10,23,16.90
2013,07,14,10,24,17.00
2013,07,14,10,25,17.10
2013,07,14,10,26,17.10
2013,07,14,10,27,17.20
2013,07,14,10,28,17.20
2013,07,14,10,29,17.30
2013,07,14,10,30,17.30
2013,07,14,10,31,17.30
2013,07,14,10,32,17.40
2013,07,14,10,33,17.40
2013,07,14,10,34,17.40
2013,07,14,10,35,17.40
2013,07,14,10,36,17.40
2013,07,14,10,37,17.50
2013,07,14,10,38,17.50
2013,07,14,10,39,17.60
2013,07,14,10,40,17.60
2013,07,14,10,41,17.70
2013,07,14,10,42,17.70
2013,07,14,10,43,17.80
2013,07,14,10,44,17.80
2013,07,14,10,45,17.80
2013,07,14,10,46,17.80
2013,07,14,10,47,17.90
2013,07,14,10,48,17.90
2013,07,14,10,49,17.90
2013,07,14,10,50,17.90
2013,07,14,10,51,17.80
2013,07,14,10,52,17.80
2013,07,14,10,53,17.80
2013,07,14,10,54,17.80
2013,07,14,10,55,17.70
2013,07,14,10,56,17.70
2013,07,14,10,57,17.70
2013,07,14,10,58,17.70
2013,07,14,10,59,17.80
2013,07,14,11,00,17.80
2013,07,14,11,01,17.90
2013,07,14,11,02,17.90
2013,07,14,11,03,17.90
2013,07,14,11,04,17.90
2013,07,14,11,05,17.90
2013,07,14,11,06,17.90
2013,07,14,11,07,18.00
2013,07,14,11,08,18.00
2013,07,14,11,09,18.00
2013,07,14,11,10,18.10
2013,07,14,11,11,18.10
2013,07,14,11,12,18.10
2013,07,14,11,13,18.10
2013,07,14,11,14,18.10
2013,07,14,11,15,18.10
2013,07,14,11,16,18.10
2013,07,14,11,17,18.10
2013,07,14,11,18,18.10
2013,07,14,11,19,18.10
2013,07,14,11,20,18.10
2013,07,14,11,21,18.10
2013,07,14,11,22,18.10
2013,07,14,11,23,18.10
2013,07,14,11,24,18.10
2013,07,14,11,25,18.10
2013,07,14,11,26,18.20
2013,07,14,11,27,18.30
2013,07,14,11,28,18.30
2013,07,14,11,29,18.40
2013,07,14,11,30,18.40
2013,07,14,11,31,18.50
2013,07,14,11,32,18.50
2013,07,14,11,33,18.50
2013,07,14,11,34,18.60
2013,07,14,11,35,18.60
2013,07,14,11,36,18.60
2013,07,14,11,37,18.60
2013,07,14,11,38,18.60
2013,07,14,11,39,18.60
2013,07,14,11,40,18.60
2013,07,14,11,41,18.60
2013,07,14,11,42,18.60
2013,07,14,11,43,18.60
2013,07,14,11,44,18.60
2013,07,14,11,45,18.60
2013,07,14,11,46,18.60
2013,07,14,11,47,18.70
2013,07,14,11,48,18.70
2013,07,14,11,49,18.70
2013,07,14,11,50,18.70
2013,07,14,11,51,18.60
2013,07,14,11,52,18.70
2013,07,14,11,53,18.70
2013,07,14,11,54,18.70
2013,07,14,11,55,18.70
2013,07,14,11,56,18.70
2013,07,14,11,57,18.70
2013,07,14,11,58,18.80
2013,07,14,11,59,18.80
2013,07,14,12,00,18.80
2013,07,14,12,01,18.80
2013,07,14,12,02,18.80
2013,07,14,12,03,18.80
2013,07,14,12,04,18.90
2013,07,14,12,05,18.90
2013,07,14,12,06,18.90
2013,07,14,12,07,18.90
2013,07,14,12,08,18.90
2013,07,14,12,09,18.80
2013,07,14,12,10,18.80
2013,07,14,12,11,18.80
2013,07,14,12,12,18.80
2013,07,14,12,13,18.80
2013,07,14,12,14,18.70
2013,07,14,12,15,18.60
2013,07,14,12,16,18.40
2013,07,14,12,17,18.20
2013,07,14,12,18,18.00
2013,07,14,12,19,17.80
2013,07,14,12,20,17.70
2013,07,14,12,21,17.60
2013,07,14,12,22,17.50
2013,07,14,12,23,17.50
2013,07,14,12,24,17.40
2013,07,14,12,25,17.40
2013,07,14,12,26,17.50
2013,07,14,12,27,17.50
2013,07,14,12,28,17.50
2013,07,14,12,29,17.60
2013,07,14,12,30,17.50
2013,07,14,12,31,17.50
2013,07,14,12,32,17.60
2013,07,14,12,33,17.60
2013,07,14,12,34,17.60
2013,07,14,12,35,17.50
2013,07,14,12,36,17.40
2013,07,14,12,37,17.30
2013,07,14,12,38,17.30
2013,07,14,12,39,17.30
2013,07,14,12,40,17.30
2013,07,14,12,41,17.30
2013,07,14,12,42,17.30
2013,07,14,12,43,17.30
2013,07,14,12,44,17.30
2013,07,14,12,45,17.30
2013,07,14,12,46,17.40
2013,07,14,12,47,17.30
2013,07,14,12,48,17.30
2013,07,14,12,49,17.20
2013,07,14,12,50,17.10
2013,07,14,12,51,17.10
2013,07,14,12,52,17.00
2013,07,14,12,53,17.00
2013,07,14,12,54,17.00
2013,07,14,12,55,17.00
2013,07,14,12,56,16.90
2013,07,14,12,57,16.90
2013,07,14,12,58,16.90
2013,07,14,12,59,17.00
2013,07,14,13,00,16.90
2013,07,14,13,01,16.90
2013,07,14,13,02,16.80
2013,07,14,13,03,16.80
2013,07,14,13,04,16.80
2013,07,14,13,05,16.70
2013,07,14,13,06,16.60
2013,07,14,13,07,16.60
2013,07,14,13,08,16.50
2013,07,14,13,09,16.50
2013,07,14,13,10,16.40
2013,07,14,13,11,16.40
2013,07,14,13,12,16.30
2013,07,14,13,13,16.30
2013,07,14,13,14,16.20
2013,07,14,13,15,16.20
2013,07,14,13,16,16.20
2013,07,14,13,17,16.20
2013,07,14,13,18,16.20
2013,07,14,13,19,16.20
2013,07,14,13,20,16.30
2013,07,14,13,21,16.30
2013,07,14,13,22,16.30
2013,07,14,13,23,16.30
2013,07,14,13,24,16.30
2013,07,14,13,25,16.30
2013,07,14,13,26,16.30
2013,07,14,13,27,16.30
2013,07,14,13,28,16.30
2013,07,14,13,29,16.30
2013,07,14,13,30,16.30
2013,07,14,13,31,16.30
2013,07,14,13,32,16.20
2013,07,14,13,33,16.10
2013,07,14,13,34,16.00
2013,07,14,13,35,15.80
2013,07,14,13,36,15.70
2013,07,14,13,37,15.60
2013,07,14,13,38,15.50
2013,07,14,13,39,15.40
2013,07,14,13,40,15.40
2013,07,14,13,41,15.40
2013,07,14,13,42,15.30
2013,07,14,13,43,15.30
2013,07,14,13,44,15.30
2013,07,14,13,45,15.30
2013,07,14,13,46,15.20
2013,07,14,13,47,15.10
2013,07,14,13,48,15.00
2013,07,14,13,49,14.90
2013,07,14,13,50,14.90
2013,07,14,13,51,14.90
2013,07,14,13,52,14.90
2013,07,14,13,53,14.90
2013,07,14,13,54,14.90
2013,07,14,13,55,14.90
2013,07,14,13,56,14.90
2013,07,14,13,57,14.90
2013,07,14,13,58,14.90
2013,07,14,13,59,14.90
2013,07,14,14,00,15.00
2013,07,14,14,01,15.00
2013,07,14,14,02,15.00
2013,07,14,14,03,15.00
2013,07,14,14,04,15.00
2013,07,14,14,05,15.10
2013,07,14,14,06,15.10
2013,07,14,14,07,15.10
2013,07,14,14,08,15.10
2013,07,14,14,09,15.20
2013,07,14,14,10,15.20
2013,07,14,14,11,15.20
2013,07,14,14,12,15.30
2013,07,14,14,13,15.30
2013,07,14,14,14,15.40
2013,07,14,14,15,15.50
2013,07,14,14,16,15.60
2013,07,14,14,17,15.70
2013,07,14,14,18,15.70
2013,07,14,14,19,15.70
2013,07,14,14,20,15.70
2013,07,14,14,21,15.70
2013,07,14,14,22,15.70
2013,07,14,14,23,15.60
2013,07,14,14,24,15.60
2013,07,14,14,25,15.50
2013,07,14,14,26,15.40
2013,07,14,14,27,15.40
2013,07,14,14,28,15.40
2013,07,14,14,29,15.40
2013,07,14,14,30,15.40
2013,07,14,14,31,15.40
2013,07,14,14,32,15.30
2013,07,14,14,33,15.30
2013,07,14,14,34,15.30
2013,07,14,14,35,15.20
2013,07,14,14,36,15.10
2013,07,14,14,37,15.10
2013,07,14,14,38,15.20
2013,07,14,14,39,15.20
2013,07,14,14,40,15.20
2013,07,14,14,41,15.20
2013,07,14,14,42,15.10
2013,07,14,14,43,15.10
2013,07,14,14,44,15.10
2013,07,14,14,45,15.10
2013,07,14,14,46,15.10
2013,07,14,14,47,15.10
2013,07,14,14,48,15.10
2013,07,14,14,49,15.10
2013,07,14,14,50,15.00
2013,07,14,14,51,15.00
2013,07,14,14,52,14.90
2013,07,14,14,53,14.90
2013,07,14,14,54,14.80
2013,07,14,14,55,14.80
2013,07,14,14,56,14.80
2013,07,14,14,57,14.80
2013,07,14,14,58,14.90
2013,07,14,14,59,15.00
2013,07,14,15,00,15.00
2013,07,14,15,01,15.10
2013,07,14,15,02,15.10
2013,07,14,15,03,15.20
2013,07,14,15,04,15.10
2013,07,14,15,05,15.10
2013,07,14,15,06,15.10
2013,07,14,15,07,15.10
2013,07,14,15,08,15.10
2013,07,14,15,09,15.00
2013,07,14,15,10,15.00
2013,07,14,15,11,15.00
2013,07,14,15,12,15.00
2013,07,14,15,13,15.10
2013,07,14,15,14,15.10
2013,07,14,15,15,15.20
2013,07,14,15,16,15.20
2013,07,14,15,17,15.30
2013,07,14,15,18,15.40
2013,07,14,15,19,15.40
2013,07,14,15,20,15.50
2013,07,14,15,21,15.50
2013,07,14,15,22,15.40
2013,07,14,15,23,15.40
2013,07,14,15,24,15.40
2013,07,14,15,25,15.40
2013,07,14,15,26,15.30
2013,07,14,15,27,15.30
2013,07,14,15,28,15.30
2013,07,14,15,29,15.30
2013,07,14,15,30,15.30
2013,07,14,15,31,15.30
2013,07,14,15,32,15.40
2013,07,14,15,33,15.40
2013,07,14,15,34,15.40
2013,07,14,15,35,15.40
2013,07,14,15,36,15.40
2013,07,14,15,37,15.40
2013,07,14,15,38,15.40
2013,07,14,15,39,15.40
2013,07,14,15,40,15.40
2013,07,14,15,41,15.40
2013,07,14,15,42,15.40
2013,07,14,15,43,15.40
2013,07,14,15,44,15.40
2013,07,14,15,45,15.40
2013,07,14,15,46,15.40
2013,07,14,15,47,15.40
2013,07,14,15,48,15.40
2013,07,14,15,49,15.30
2013,07,14,15,50,15.30
2013,07,14,15,51,15.30
2013,07,14,15,52,15.30
2013,07,14,15,53,15.40
2013,07,14,15,54,15.40
2013,07,14,15,55,15.40
2013,07,14,15,56,15.50
2013,07,14,15,57,15.50
2013,07,14,15,58,15.50
2013,07,14,15,59,15.40
2013,07,14,16,00,15.40
2013,07,14,16,01,15.40
2013,07,14,16,02,15.40
2013,07,14,16,03,15.40
2013,07,14,16,04,15.40
2013,07,14,16,05,15.40
2013,07,14,16,06,15.40
2013,07,14,16,07,15.40
2013,07,14,16,08,15.40
2013,07,14,16,09,15.40
2013,07,14,16,10,15.40
2013,07,14,16,11,15.50
2013,07,14,16,12,15.50
2013,07,14,16,13,15.60
2013,07,14,16,14,15.60
2013,07,14,16,15,15.70
2013,07,14,16,16,15.70
2013,07,14,16,17,15.80
2013,07,14,16,18,15.80
2013,07,14,16,19,15.90
2013,07,14,16,20,15.90
2013,07,14,16,21,16.00
2013,07,14,16,22,16.00
2013,07,14,16,23,16.10
2013,07,14,16,24,16.10
2013,07,14,16,25,16.10
2013,07,14,16,26,16.10
2013,07,14,16,27,16.00
2013,07,14,16,28,15.90
2013,07,14,16,29,15.90
2013,07,14,16,30,15.90
2013,07,14,16,31,16.00
2013,07,14,16,32,16.10
2013,07,14,16,33,16.10
2013,07,14,16,34,16.20
2013,07,14,16,35,16.20
2013,07,14,16,36,16.20
2013,07,14,16,37,16.20
2013,07,14,16,38,16.20
2013,07,14,16,39,16.30
2013,07,14,16,40,16.40
2013,07,14,16,41,16.40
2013,07,14,16,42,16.60
2013,07,14,16,43,16.70
2013,07,14,16,44,16.80
2013,07,14,16,45,16.90
2013,07,14,16,46,17.10
2013,07,14,16,47,17.20
2013,07,14,16,48,17.40
2013,07,14,16,49,17.50
2013,07,14,16,50,17.60
2013,07,14,16,51,17.70
2013,07,14,16,52,17.90
2013,07,14,16,53,18.10
2013,07,14,16,54,18.20
2013,07,14,16,55,18.40
2013,07,14,16,56,18.50
2013,07,14,16,57,18.60
2013,07,14,16,58,18.60
2013,07,14,16,59,18.70
2013,07,14,17,00,18.70
2013,07,14,17,01,18.70
2013,07,14,17,02,18.80
2013,07,14,17,03,18.90
2013,07,14,17,04,18.90
2013,07,14,17,05,19.00
2013,07,14,17,06,19.10
2013,07,14,17,07,19.10
2013,07,14,17,08,19.20
2013,07,14,17,09,19.40
2013,07,14,17,10,19.50
2013,07,14,17,11,19.70
2013,07,14,17,12,19.80
2013,07,14,17,13,20.00
2013,07,14,17,14,20.10
2013,07,14,17,15,20.30
2013,07,14,17,16,20.40
2013,07,14,17,17,20.70
2013,07,14,17,18,21.00
2013,07,14,17,19,21.20